ATLAS 5 CENTAUR DEB, 44677

Orbit data source: Space-Track

ATLAS 5 CENTAUR DEB, 44677 is space debris in HEO originally from a launch on Wed, 17 Oct 2018 UTC launched from the Air Force Eastern Test Range (AFETR). Debris objects in space refer to the collection of defunct objects orbiting the Earth. Examples of debris include non-operational satellites, rocket bodies, and fragments generated from explosions, collisions, or faulty payload assembly.

Loading next visibility...
Identifier
44677, 2018-079AP
Orbit
HEO
Country
Flag of USUS
Related business
Flag of USUnited Launch Alliance/Lockheed Martin (US)
Manufacturer
ULA Decatur
Mission
Spacecraft
Bus & Motor
Unknown
Mass
Unknown
Launch date (UTC)
2018-10-17 (8 years ago)
Launch vehicle
Unknown
Launch site
Air Force Eastern Test Range (AFETR)
Object type
Payload
Rocket body
Debris
Shape & HBR
Unknown shape, 1.1 m
Radar Cross Section
Medium (>0.1 m² and <1 m²)

Expand to show TLE details & history
Last TLE update: 3 days ago

TLE from 3 days ago
0 ATLAS 5 CENTAUR DEB
1 44677U 18079AP  26254.64331402 -.00000145  00000-0  00000-0 0  9996
2 44677  13.1477  49.8162 4410275 283.7385  32.2020  1.78492834 47323
Epoch: 2026-09-11T15:26Z
TLE epoch observation values (Epoch: 2026-09-11T15:26:22.331Z)
Latitude
-0.00007°
Longitude
-172.36917°
Altitude
14,521.711 km
Speed
4.925 km/s
True Right ascension
03h 19m 33s
True Declination
0° 00' 00"
Sunlit
Object was in daylight at epoch
Visualization orbit readout
Latitude
Unknown
Longitude
Unknown
Altitude
Unknown
Speed
Unknown
Apparent Right ascension
Unknown
Apparent Declination
Unknown
Sunlit
N/A
Visualization observer readout
Local Sidereal Time
04:27:33
Azimuth
Unknown
Elevation
Unknown
Doppler factor
Unknown
Orbital elements
Apogee altitude
34,992.302 km
Perigee altitude
9,669.397 km
Semi-major axis
28,708.987 km
Eccentricity
0.44103
Inclination
13.1477°
RAAN
49.8162°
Arg. of periapsis
283.7385°
True anomaly
76.32267°
Mean anomaly
32.202°
Eccentric anomaly
52.15674°
Mean motion
0.44619 °/min
Orbital period
806.84 mins
BSTAR
0
Loading maneuver chart data...
Computing Atmospheric mass density...

Documentation

Showing up to 5 results
|